Date String (YYYY-MM-DD hh:mm:ss) UTC,Instrument flags,Ambient pressure (hPa),Sample flow (lpm),Bypass flow (lpm),Sample temperature (°C),Ambient temperature (°C),ASC tube jacket temperature (°C),LED temperature (°C),Box temperature (°C),Sample RH (%),Span deviation,Mass concentration (μg/m³),Mass concentration (μg/m³),Mass concentration (μg/m³)
DateTimeUTC,F1_M11,P_M11,Q1_M11,Q2_M11,T1_M11,T2_M11,T3_M11,T4_M11,T5_M11,U1_M11,ZSPAN_M11,X2_M11,X0_M11,X1_M11
2023-04-10 08:00:00,,0838.8,5.00,0.00,25.8,24.1,00.0,34.2,27.4,12.0,0000.0,0004.30,0011.17,0002.47
2023-04-10 08:01:00,,0838.7,5.00,0.00,25.8,24.1,00.0,34.1,27.3,12.0,0000.0,0004.33,0011.72,0002.48
2023-04-10 08:02:00,,0838.8,4.99,0.00,25.8,24.1,00.0,34.1,27.3,11.8,0000.0,0004.27,0011.38,0002.47
2023-04-10 08:03:00,,0838.8,4.99,0.00,25.8,24.1,00.0,34.1,27.3,11.9,0000.0,0004.23,0011.03,0002.46
2023-04-10 08:04:00,,0838.7,5.00,0.00,25.8,24.1,00.0,34.1,27.3,11.9,0000.0,0004.24,0010.90,0002.46
2023-04-10 08:05:00,,0838.8,5.00,0.00,25.8,24.1,00.0,34.1,27.3,12.1,0000.0,0004.23,0010.80,0002.46
2023-04-10 08:06:00,,0838.7,5.00,0.00,25.8,24.1,00.0,34.1,27.3,12.0,0000.0,0004.26,0010.86,0002.46
2023-04-10 08:07:00,,0838.7,5.01,0.00,25.8,24.1,00.0,34.1,27.3,12.2,0000.0,0004.29,0011.12,0002.46
2023-04-10 08:08:00,,0838.6,4.99,0.00,25.8,24.1,00.0,34.1,27.3,12.2,0000.0,0004.27,0011.42,0002.45
2023-04-10 08:09:00,,0838.6,5.00,0.00,25.8,24.1,00.0,34.1,27.3,12.0,0000.0,0004.34,0011.46,0002.47
2023-04-10 08:10:00,,0838.6,5.01,0.00,25.8,24.0,00.0,34.1,27.3,11.8,0000.0,0004.32,0011.01,0002.46
2023-04-10 08:11:00,,0838.6,5.00,0.00,25.8,24.0,00.0,34.1,27.3,11.8,0000.0,0004.34,0011.07,0002.44
2023-04-10 08:12:00,,0838.6,5.00,0.00,25.7,24.0,00.0,34.1,27.2,11.9,0000.0,0004.34,0010.47,0002.44
2023-04-10 08:13:00,,0838.6,4.99,0.00,25.7,24.0,00.0,34.1,27.2,11.7,0000.0,0004.34,0010.43,0002.45
2023-04-10 08:14:00,,0838.6,4.99,0.00,25.7,24.0,00.0,34.1,27.2,11.7,0000.0,0004.35,0010.41,0002.45
2023-04-10 08:15:00,,0838.6,5.00,0.00,25.7,23.9,00.0,34.1,27.2,11.7,0000.0,0004.28,0010.33,0002.45
2023-04-10 08:16:00,,0838.6,5.01,0.00,25.7,23.9,00.0,34.1,27.2,11.7,0000.0,0004.31,0010.39,0002.46
2023-04-10 08:17:00,,0838.6,5.00,0.00,25.7,23.9,00.0,34.1,27.2,11.7,0000.0,0004.27,0010.25,0002.48
2023-04-10 08:18:00,,0838.6,4.99,0.00,25.7,23.9,00.0,34.1,27.2,11.7,0000.0,0004.25,0010.15,0002.47
2023-04-10 08:19:00,,0838.6,4.99,0.00,25.7,23.9,00.0,34.1,27.1,11.7,0000.0,0004.26,0009.97,0002.47
2023-04-10 08:20:00,,0838.6,5.00,0.00,25.7,23.9,00.0,34.0,27.1,11.7,0000.0,0004.22,0010.00,0002.45
2023-04-10 08:21:00,,0838.6,5.00,0.00,25.7,23.9,00.0,34.0,27.1,11.6,0000.0,0004.18,0009.95,0002.45
2023-04-10 08:22:00,,0838.6,5.01,0.00,25.6,23.9,00.0,34.0,27.1,11.6,0000.0,0004.15,0009.77,0002.44
2023-04-10 08:23:00,,0838.6,5.00,0.00,25.6,23.8,00.0,34.0,27.1,11.6,0000.0,0004.17,0010.08,0002.40
2023-04-10 08:24:00,,0838.6,5.00,0.00,25.6,23.8,00.0,34.0,27.1,11.6,0000.0,0004.13,0010.04,0002.37
2023-04-10 08:25:00,,0838.6,4.99,0.00,25.6,23.8,00.0,34.0,27.1,11.6,0000.0,0004.13,0010.14,0002.36
2023-04-10 08:26:00,,0838.6,4.99,0.00,25.6,23.8,00.0,34.0,27.1,11.5,0000.0,0004.10,0010.31,0002.34
2023-04-10 08:27:00,,0838.6,5.00,0.00,25.6,23.8,00.0,34.0,27.1,11.5,0000.0,0004.07,0010.31,0002.32
2023-04-10 08:28:00,,0838.6,4.99,0.00,25.6,23.8,00.0,34.0,27.0,11.6,0000.0,0004.07,0010.44,0002.29
2023-04-10 08:29:00,,0838.6,5.00,0.00,25.6,23.8,00.0,34.0,27.0,11.5,0000.0,0004.06,0010.58,0002.28
2023-04-10 08:30:00,,0838.6,5.00,0.00,25.6,23.7,00.0,34.0,27.0,11.5,0000.0,0004.06,0010.44,0002.28
2023-04-10 08:31:00,,0838.6,5.01,0.00,25.5,23.7,00.0,33.9,27.0,11.5,0000.0,0004.09,0011.25,0002.28
2023-04-10 08:32:00,,0838.6,5.00,0.00,25.5,23.7,00.0,33.9,26.9,11.6,0000.0,0004.07,0011.49,0002.29
2023-04-10 08:33:00,,0838.6,5.00,0.00,25.5,23.7,00.0,33.9,26.9,11.6,0000.0,0004.11,0011.46,0002.29
2023-04-10 08:34:00,,0838.6,5.00,0.00,25.5,23.7,00.0,33.9,27.0,11.5,0000.0,0004.08,0011.79,0002.28
2023-04-10 08:35:00,,0838.6,5.00,0.00,25.5,23.7,00.0,33.9,27.0,11.5,0000.0,0004.08,0011.98,0002.29
2023-04-10 08:36:00,,0838.6,4.99,0.00,25.5,23.7,00.0,33.9,27.0,11.6,0000.0,0004.07,0011.83,0002.31
2023-04-10 08:37:00,,0838.6,5.00,0.00,25.5,23.6,00.0,33.9,26.9,11.5,0000.0,0004.09,0011.50,0002.33
2023-04-10 08:38:00,,0838.6,5.00,0.00,25.4,23.6,00.0,33.9,26.9,11.5,0000.0,0004.08,0011.51,0002.32
2023-04-10 08:39:00,,0838.6,5.00,0.00,25.4,23.6,00.0,33.9,26.9,11.5,0000.0,0004.09,0011.70,0002.33
2023-04-10 08:40:00,,0838.6,5.00,0.00,25.4,23.6,00.0,33.8,26.9,11.6,0000.0,0004.06,0011.31,0002.35
2023-04-10 08:41:00,,0838.6,5.00,0.00,25.4,23.6,00.0,33.8,26.9,11.6,0000.0,0004.09,0011.96,0002.34
2023-04-10 08:42:00,,0838.6,5.00,0.00,25.4,23.6,00.0,33.8,26.9,11.6,0000.0,0004.05,0011.72,0002.33
2023-04-10 08:43:00,,0838.6,5.00,0.00,25.4,23.5,00.0,33.8,26.8,11.6,0000.0,0004.03,0011.42,0002.32
2023-04-10 08:44:00,,0838.6,4.99,0.00,25.4,23.5,00.0,33.8,26.8,11.6,0000.0,0004.01,0011.57,0002.33
2023-04-10 08:45:00,,0838.6,5.00,0.00,25.4,23.5,00.0,33.8,26.8,11.8,0000.0,0004.08,0011.22,0002.37
2023-04-10 08:46:00,,0838.6,5.00,0.00,25.4,23.5,00.0,33.8,26.9,11.7,0000.0,0004.11,0011.24,0002.37
2023-04-10 08:47:00,,0838.6,5.00,0.00,25.4,23.5,00.0,33.8,26.8,11.7,0000.0,0004.15,0011.74,0002.38
2023-04-10 08:48:00,,0838.6,5.00,0.00,25.3,23.5,00.0,33.8,26.8,11.6,0000.0,0004.17,0012.68,0002.38
2023-04-10 08:49:00,,0838.5,5.00,0.00,25.3,23.5,00.0,33.7,26.8,11.8,0000.0,0004.20,0012.59,0002.41
2023-04-10 08:50:00,,0838.5,5.00,0.00,25.3,23.5,00.0,33.7,26.8,11.8,0000.0,0004.19,0012.30,0002.44
2023-04-10 08:51:00,,0838.5,5.00,0.00,25.3,23.5,00.0,33.7,26.7,11.9,0000.0,0004.22,0012.53,0002.45
2023-04-10 08:52:00,,0838.4,5.00,0.00,25.3,23.5,00.0,33.7,26.8,11.8,0000.0,0004.20,0012.26,0002.46
2023-04-10 08:53:00,,0838.4,5.00,0.00,25.3,23.5,00.0,33.7,26.8,11.9,0000.0,0004.25,0011.63,0002.49
2023-04-10 08:54:00,,0838.4,5.00,0.00,25.3,23.5,00.0,33.7,26.7,11.8,0000.0,0004.33,0011.84,0002.50
2023-04-10 08:55:00,,0838.4,5.00,0.00,25.3,23.5,00.0,33.7,26.7,11.8,0000.0,0004.33,0011.76,0002.51
2023-04-10 08:56:00,,0838.5,5.00,0.00,25.3,23.5,00.0,33.7,26.7,11.6,0000.0,0004.26,0011.53,0002.52
2023-04-10 08:57:00,,0838.4,4.99,0.00,25.2,23.4,00.0,33.7,26.7,11.6,0000.0,0004.22,0011.77,0002.52
2023-04-10 08:58:00,,0838.4,4.99,0.00,25.2,23.4,00.0,33.7,26.7,11.7,0000.0,0004.20,0011.36,0002.53
2023-04-10 08:59:00,,0838.4,4.99,0.00,25.2,23.4,00.0,33.6,26.7,11.7,0000.0,0004.20,0010.45,0002.53
